SA3PJN-WX Weather Reports


Display with metric or nautical units.
time (UTC)temp
F
wind
direction
speed
MPH
gust
MPH
rain 1hr
in
rain 24hr
in
rain mn
in
humidity
%
barometer
mb
20260509095053 56 91 5.0 16.0 0.00 0.00 0.00 43 975.0
20260509094553 56 257 5.0 16.0 0.00 0.00 0.00 45 975.1
20260509094053 56 194 4.0 15.0 0.00 0.00 0.00 45 975.1
20260509093553 56 235 4.0 9.0 0.00 0.00 0.00 47 975.2
20260509093053 56 201 4.0 9.0 0.00 0.00 0.00 47 975.3
20260509092553 55 325 4.0 9.0 0.00 0.00 0.00 45 975.2
20260509092053 55 200 4.0 11.0 0.00 0.00 0.00 46 975.3
20260509091553 55 271 4.0 11.0 0.00 0.00 0.00 47 975.3
20260509091053 55 219 4.0 11.0 0.00 0.00 0.00 48 975.3
20260509090552 55 182 5.0 11.0 0.00 0.00 0.00 48 975.3
20260509090052 55 223 5.0 11.0 0.00 0.00 0.00 47 975.2
20260509085522 55 172 5.0 13.0 0.00 0.00 0.00 47 975.1
20260509085022 56 172 5.0 13.0 0.00 0.00 0.00 47 975.3
20260509084522 56 262 6.0 13.0 0.00 0.00 0.00 46 975.2
20260509084022 56 215 6.0 14.0 0.00 0.00 0.00 47 975.4
20260509083452 57 231 5.0 14.0 0.00 0.00 0.00 45 975.3
20260509082952 57 182 5.0 13.0 0.00 0.00 0.00 46 975.4
20260509082452 58 257 4.0 13.0 0.00 0.00 0.00 46 975.4
20260509081952 58 144 4.0 12.0 0.00 0.00 0.00 45 975.3
20260509081452 57 184 5.0 13.0 0.00 0.00 0.00 48 975.4
20260509080952 56 143 5.0 13.0 0.00 0.00 0.00 46 975.3
20260509080422 56 246 5.0 21.0 0.00 0.00 0.00 47 975.4
20260509075852 56 226 5.0 21.0 0.00 0.00 0.00 47 975.3
20260509075352 56 225 5.0 17.0 0.00 0.00 0.00 47 975.4
20260509074852 56 246 6.0 17.0 0.00 0.00 0.00 45 975.4
20260509074322 57 49 6.0 21.0 0.00 0.00 0.00 48 975.4
20260509073822 56 82 6.0 21.0 0.00 0.00 0.00 48 975.5
20260509073252 56 107 6.0 19.0 0.00 0.00 0.00 48 975.5
20260509072752 56 61 6.0 19.0 0.00 0.00 0.00 49 975.6
20260509072252 56 195 6.0 19.0 0.00 0.00 0.00 50 975.7
20260509071752 55 194 6.0 16.0 0.00 0.00 0.00 50 975.8
20260509071222 54 206 5.0 18.0 0.00 0.00 0.00 50 975.7
20260509070722 54 205 5.0 18.0 0.00 0.00 0.00 50 975.6
20260509070222 56 249 5.0 15.0 0.00 0.00 0.00 50 975.9
20260509065722 55 217 5.0 15.0 0.00 0.00 0.00 49 975.6
20260509065152 56 242 5.0 13.0 0.00 0.00 0.00 50 975.8
20260509064652 53 252 5.0 15.0 0.00 0.00 0.00 50 975.6
20260509064152 54 246 5.0 22.0 0.00 0.00 0.00 50 975.6
20260509063622 54 197 6.0 22.0 0.00 0.00 0.00 51 975.7
20260509063122 53 171 5.0 13.0 0.00 0.00 0.00 51 975.6
20260509062622 52 213 5.0 19.0 0.00 0.00 0.00 52 975.6
20260509062122 52 52 5.0 19.0 0.00 0.00 0.00 52 975.6
20260509061622 53 167 5.0 16.0 0.00 0.00 0.00 52 975.6
20260509061122 52 260 5.0 11.0 0.00 0.00 0.00 52 975.6
20260509060552 54 208 5.0 16.0 0.00 0.00 0.00 50 975.7
20260509060052 54 248 6.0 16.0 0.00 0.00 0.00 51 975.7
20260509055522 53 201 5.0 13.0 0.00 0.00 0.00 51 975.7
20260509055022 53 244 5.0 16.0 0.00 0.00 0.00 53 975.7
20260509054522 51 263 5.0 17.0 0.00 0.00 0.00 54 975.7
20260509054022 49 248 5.0 19.0 0.00 0.00 0.00 56 975.7
20260509053452 49 212 5.0 19.0 0.00 0.00 0.00 54 975.7
20260509052952 49 99 5.0 17.0 0.00 0.00 0.00 53 975.7
20260509052422 50 175 6.0 23.0 0.00 0.00 0.00 52 975.6
20260509051852 52 163 5.0 23.0 0.00 0.00 0.00 50 975.8
20260509051352 53 247 5.0 22.0 0.00 0.00 0.00 49 975.8
20260509050852 54 0 5.0 22.0 0.00 0.00 0.00 48 975.8
20260509050351 54 199 5.0 12.0 0.00 0.00 0.00 48 975.7
20260509045851 53 190 5.0 11.0 0.00 0.00 0.00 48 975.8
20260509045351 53 268 5.0 13.0 0.00 0.00 0.00 49 975.9
20260509044821 53 247 5.0 17.0 0.00 0.00 0.00 49 975.8
20260509044251 53 230 5.0 17.0 0.00 0.00 0.00 50 975.9
20260509043751 51 254 5.0 13.0 0.00 0.00 0.00 52 975.9
20260509043251 51 243 5.0 13.0 0.00 0.00 0.00 52 975.9
20260509042751 51 196 5.0 12.0 0.00 0.00 0.00 52 976.2
20260509042251 50 338 5.0 12.0 0.00 0.00 0.00 52 976.1
20260509041751 50 197 5.0 12.0 0.00 0.00 0.00 53 976.0
20260509041251 50 255 5.0 11.0 0.00 0.00 0.00 54 976.1
20260509040751 49 185 4.0 10.0 0.00 0.00 0.00 54 976.0
20260509040251 48 231 5.0 14.0 0.00 0.00 0.00 56 976.0
20260509035721 47 64 6.0 17.0 0.00 0.00 0.00 57 976.2
20260509035221 47 59 6.0 17.0 0.00 0.00 0.00 56 976.1
20260509034721 46 219 6.0 16.0 0.00 0.00 0.00 59 976.1
20260509034221 45 97 5.0 14.0 0.00 0.00 0.00 61 976.1
20260509033721 45 222 6.0 16.0 0.00 0.00 0.00 62 976.2
20260509033221 45 211 6.0 16.0 0.00 0.00 0.00 62 976.2
20260509032651 45 77 6.0 16.0 0.00 0.00 0.00 62 976.2
20260509032151 45 46 4.0 12.0 0.00 0.00 0.00 63 976.2
20260509031621 45 46 5.0 13.0 0.00 0.00 0.00 63 976.1
20260509031121 45 91 5.0 13.0 0.00 0.00 0.00 63 976.2
20260509030551 45 34 5.0 12.0 0.00 0.00 0.00 62 976.2
20260509030051 45 52 6.0 18.0 0.00 0.00 0.00 62 976.2
20260509025551 45 58 5.0 18.0 0.00 0.00 0.00 61 976.1
20260509025051 45 68 5.0 18.0 0.00 0.00 0.00 61 976.0
20260509024551 45 44 5.0 14.0 0.00 0.00 0.00 61 976.0
20260509024051 45 79 4.0 13.0 0.00 0.00 0.00 61 976.0
20260509023521 45 204 4.0 11.0 0.00 0.00 0.00 62 976.0
20260509023021 44 288 4.0 11.0 0.00 0.00 0.00 64 976.0
20260509022521 44 58 4.0 11.0 0.00 0.00 0.00 65 976.0
20260509022021 44 164 5.0 11.0 0.00 0.00 0.00 65 976.0
20260509021451 44 67 5.0 11.0 0.00 0.00 0.00 64 976.1
20260509020950 44 57 5.0 13.0 0.00 0.00 0.00 64 976.1
20260509020421 44 95 4.0 13.0 0.00 0.00 0.00 63 976.1
20260509015920 44 99 5.0 12.0 0.00 0.00 0.00 62 976.1
20260509015420 45 31 5.0 12.0 0.00 0.00 0.00 62 976.2
20260509014920 45 0 5.0 12.0 0.00 0.00 0.00 62 976.1
20260509014350 45 78 4.0 11.0 0.00 0.00 0.00 62 976.2
20260509013850 44 87 5.0 12.0 0.00 0.00 0.00 62 976.2
20260509013350 45 62 5.0 12.0 0.00 0.00 0.00 62 976.2
20260509012850 45 54 5.0 12.0 0.00 0.00 0.00 62 976.2
20260509012350 45 75 5.0 11.0 0.00 0.00 0.00 61 976.2
20260509011820 45 73 6.0 13.0 0.00 0.00 0.00 60 976.2
20260509011320 45 54 6.0 13.0 0.00 0.00 0.00 60 976.2
20260509010820 46 44 8.0 14.0 0.00 0.00 0.00 59 976.3
20260509010320 46 77 8.0 16.0 0.00 0.00 0.00 59 976.2
20260509005820 46 47 7.0 16.0 0.00 0.00 0.00 59 976.2
20260509005320 46 68 6.0 14.0 0.00 0.00 0.00 60 976.3
20260509004820 45 76 6.0 14.0 0.00 0.00 0.00 61 976.1
20260509004250 45 117 6.0 13.0 0.00 0.00 0.00 62 976.3
20260509003750 45 73 5.0 13.0 0.00 0.00 0.00 62 976.2
20260509003250 45 105 5.0 12.0 0.00 0.00 0.00 62 976.3
20260509002720 46 63 6.0 13.0 0.00 0.00 0.00 61 976.3
20260509002220 46 62 5.0 13.0 0.00 0.00 0.00 60 976.4
20260509001720 46 57 4.0 13.0 0.00 0.00 0.00 59 976.3
20260509001220 46 8 4.0 13.0 0.00 0.00 0.00 59 976.3
20260509000720 46 209 4.0 11.0 0.00 0.00 0.00 60 976.4
20260509000220 46 50 5.0 11.0 0.00 0.00 0.00 61 976.3
20260508235650 45 217 6.0 13.0 0.00 0.00 0.00 63 976.5
20260508235150 45 64 6.0 13.0 0.00 0.00 0.00 63 976.5
20260508234650 45 95 6.0 11.0 0.00 0.00 0.00 62 976.6
20260508234149 45 51 6.0 11.0 0.00 0.00 0.00 62 976.5
20260508233620 45 75 6.0 11.0 0.00 0.00 0.00 62 976.6
20260508233119 46 42 5.0 11.0 0.00 0.00 0.00 60 976.5
20260508232550 46 66 5.0 11.0 0.00 0.00 0.00 59 976.5
20260508232049 46 51 5.0 10.0 0.00 0.00 0.00 58 976.5
20260508231550 46 60 5.0 9.0 0.00 0.00 0.00 57 976.3
20260508231049 46 49 4.0 8.0 0.00 0.00 0.00 57 976.2
20260508230520 46 50 4.0 8.0 0.00 0.00 0.00 57 976.2
20260508225949 46 49 4.0 8.0 0.00 0.00 0.00 57 976.3
20260508225449 46 62 4.0 8.0 0.00 0.00 0.00 56 976.3
20260508224949 46 30 4.0 8.0 0.00 0.00 0.00 56 976.3
20260508224419 46 39 3.0 7.0 0.00 0.00 0.00 54 976.4
20260508223919 47 35 3.0 7.0 0.00 0.00 0.00 53 976.4
20260508223349 47 61 1.0 4.0 0.00 0.00 0.00 52 976.4
20260508222849 47 158 2.0 4.0 0.00 0.00 0.00 52 976.4
20260508222319 47 154 2.0 6.0 0.00 0.00 0.00 52 976.3
20260508221819 47 199 3.0 10.0 0.00 0.00 0.00 51 976.3
20260508221249 47 207 3.0 10.0 0.00 0.00 0.00 50 976.4
20260508220750 47 209 3.0 10.0 0.00 0.00 0.00 50 976.3
20260508220249 47 257 3.0 8.0 0.00 0.00 0.00 51 976.3
20260508215749 47 225 3.0 7.0 0.00 0.00 0.00 51 976.4
20260508215249 47 231 3.0 8.0 0.00 0.00 0.00 50 976.4
20260508214749 47 193 3.0 8.0 0.00 0.00 0.00 50 976.4
20260508214249 47 226 3.0 8.0 0.00 0.00 0.00 50 976.3
20260508213749 47 216 3.0 7.0 0.00 0.00 0.00 50 976.4
20260508213249 47 61 3.0 9.0 0.00 0.00 0.00 49 976.5
20260508212749 47 68 4.0 10.0 0.00 0.00 0.00 48 976.3
20260508212249 48 64 5.0 10.0 0.00 0.00 0.00 47 976.4
20260508211749 48 68 4.0 10.0 0.00 0.00 0.00 47 976.4
20260508211249 48 60 4.0 9.0 0.00 0.00 0.00 46 976.4
20260508210749 48 92 3.0 9.0 0.00 0.00 0.00 45 976.4
20260508210219 48 199 3.0 7.0 0.00 0.00 0.00 45 976.3
20260508205719 48 59 3.0 7.0 0.00 0.00 0.00 44 976.3
20260508205219 49 195 3.0 9.0 0.00 0.00 0.00 45 976.4
20260508204719 49 229 3.0 9.0 0.00 0.00 0.00 45 976.3
20260508204219 48 200 3.0 7.0 0.00 0.00 0.00 45 976.3
20260508203719 48 231 2.0 7.0 0.00 0.00 0.00 44 976.2
20260508203219 49 246 2.0 6.0 0.00 0.00 0.00 43 976.2
20260508202719 49 335 2.0 6.0 0.00 0.00 0.00 43 976.1
20260508202219 49 237 2.0 6.0 0.00 0.00 0.00 42 976.1
20260508201719 49 293 2.0 6.0 0.00 0.00 0.00 41 976.1
20260508201219 49 257 2.0 6.0 0.00 0.00 0.00 41 976.2
20260508200718 49 253 2.0 5.0 0.00 0.00 0.00 40 976.1
20260508200148 49 244 2.0 5.0 0.00 0.00 0.00 40 976.2
20260508195618 49 226 2.0 5.0 0.00 0.00 0.00 40 976.0
20260508195118 50 232 2.0 5.0 0.00 0.00 0.00 40 976.0
20260508194618 50 239 3.0 7.0 0.00 0.00 0.00 39 976.0
20260508194118 50 155 3.0 7.0 0.00 0.00 0.00 39 976.0
20260508193618 50 153 3.0 6.0 0.00 0.00 0.00 39 976.0
20260508193118 50 172 3.0 6.0 0.00 0.00 0.00 39 976.0
20260508192618 50 234 2.0 5.0 0.00 0.00 0.00 40 976.0
20260508192048 51 170 2.0 4.0 0.00 0.00 0.00 41 976.0
20260508191548 51 272 2.0 4.0 0.00 0.00 0.00 40 976.0
20260508191048 51 210 2.0 5.0 0.00 0.00 0.00 40 976.0
20260508190548 52 236 2.0 6.0 0.00 0.00 0.00 40 975.6
20260508190048 52 131 3.0 7.0 0.00 0.00 0.00 39 976.0
20260508185518 53 136 4.0 10.0 0.00 0.00 0.00 39 976.0
20260508185018 53 174 3.0 10.0 0.00 0.00 0.00 37 976.0
20260508184518 53 153 2.0 5.0 0.00 0.00 0.00 38 976.0
20260508184018 53 241 2.0 5.0 0.00 0.00 0.00 37 975.6
20260508183518 53 268 2.0 4.0 0.00 0.00 0.00 37 976.0
20260508183018 54 241 2.0 5.0 0.00 0.00 0.00 37 975.5
20260508182518 54 227 2.0 5.0 0.00 0.00 0.00 36 975.5
20260508182018 54 245 2.0 5.0 0.00 0.00 0.00 36 975.6
20260508181518 54 251 2.0 5.0 0.00 0.00 0.00 36 975.6
20260508181018 55 220 2.0 6.0 0.00 0.00 0.00 35 975.6
20260508180518 56 232 2.0 6.0 0.00 0.00 0.00 35 975.6
20260508180018 56 43 2.0 6.0 0.00 0.00 0.00 32 975.6
20260508175518 56 166 1.0 3.0 0.00 0.00 0.00 32 975.5
20260508174948 57 246 1.0 3.0 0.00 0.00 0.00 33 975.5
20260508174448 57 226 1.0 4.0 0.00 0.00 0.00 32 975.3
20260508173948 57 114 1.0 4.0 0.00 0.00 0.00 32 975.5
20260508173448 57 84 1.0 5.0 0.00 0.00 0.00 32 975.5
20260508172948 58 164 2.0 5.0 0.00 0.00 0.00 31 975.4
20260508172448 58 72 1.0 4.0 0.00 0.00 0.00 30 975.4
20260508171948 58 206 1.0 6.0 0.00 0.00 0.00 30 975.3
20260508171448 58 27 2.0 6.0 0.00 0.00 0.00 29 975.3
20260508170948 58 188 2.0 6.0 0.00 0.00 0.00 30 975.4
20260508170448 58 72 2.0 6.0 0.00 0.00 0.00 28 975.4
20260508165918 59 103 1.0 4.0 0.00 0.00 0.00 30 975.4
20260508165418 59 192 2.0 7.0 0.00 0.00 0.00 30 975.4
20260508164918 59 259 2.0 7.0 0.00 0.00 0.00 29 975.4
20260508164417 59 200 2.0 4.0 0.00 0.00 0.00 28 975.6
20260508163847 60 244 2.0 4.0 0.00 0.00 0.00 30 975.6
20260508163317 59 160 2.0 4.0 0.00 0.00 0.00 29 975.6
20260508162817 59 173 2.0 8.0 0.00 0.00 0.00 28 975.6
20260508162317 59 289 2.0 8.0 0.00 0.00 0.00 29 975.6
20260508161817 59 117 2.0 6.0 0.00 0.00 0.00 29 975.5
20260508161317 60 157 2.0 6.0 0.00 0.00 0.00 28 975.5
20260508160747 60 139 2.0 6.0 0.00 0.00 0.00 29 975.6
20260508160247 60 97 3.0 7.0 0.00 0.00 0.00 29 975.6
20260508155717 60 219 3.0 10.0 0.00 0.00 0.00 28 975.6
20260508155217 60 330 3.0 13.0 0.00 0.00 0.00 28 975.6
20260508154717 60 218 4.0 17.0 0.00 0.00 0.00 29 975.5
20260508154217 60 156 4.0 17.0 0.00 0.00 0.00 28 975.5
20260508153717 59 71 4.0 17.0 0.00 0.00 0.00 26 975.5
20260508153217 60 232 4.0 16.0 0.00 0.00 0.00 28 975.6
20260508152717 60 221 3.0 16.0 0.00 0.00 0.00 28 975.6
20260508152217 60 192 3.0 9.0 0.00 0.00 0.00 29 976.0
20260508151717 60 202 3.0 8.0 0.00 0.00 0.00 28 976.0
20260508151217 60 214 3.0 8.0 0.00 0.00 0.00 29 975.6
20260508150647 60 205 2.0 7.0 0.00 0.00 0.00 30 976.0
20260508150117 59 134 3.0 13.0 0.00 0.00 0.00 28 976.0
20260508145617 58 237 4.0 13.0 0.00 0.00 0.00 30 976.0
20260508145117 59 337 4.0 13.0 0.00 0.00 0.00 31 976.0
20260508144617 58 207 6.0 17.0 0.00 0.00 0.00 31 976.0
20260508144047 58 50 7.0 17.0 0.00 0.00 0.00 30 976.0
20260508143547 58 86 5.0 16.0 0.00 0.00 0.00 30 976.0
20260508143047 58 231 4.0 16.0 0.00 0.00 0.00 30 976.0
20260508142517 58 178 6.0 16.0 0.00 0.00 0.00 31 976.0
20260508142017 57 66 6.0 16.0 0.00 0.00 0.00 30 976.0
20260508141517 58 45 4.0 12.0 0.00 0.00 0.00 30 976.0
20260508141017 59 261 3.0 9.0 0.00 0.00 0.00 31 976.1
20260508140517 59 142 4.0 10.0 0.00 0.00 0.00 32 976.1
20260508140016 58 128 5.0 12.0 0.00 0.00 0.00 30 976.3
20260508135516 58 50 5.0 13.0 0.00 0.00 0.00 30 976.3
20260508134946 58 18 8.0 17.0 0.00 0.00 0.00 30 976.2
20260508134446 57 51 8.0 17.0 0.00 0.00 0.00 31 976.2
20260508133946 57 62 8.0 17.0 0.00 0.00 0.00 29 976.4
20260508133446 56 17 7.0 17.0 0.00 0.00 0.00 29 976.5
20260508132916 57 62 7.0 17.0 0.00 0.00 0.00 30 976.6
20260508132416 58 129 7.0 17.0 0.00 0.00 0.00 30 977.0
20260508131846 57 54 6.0 15.0 0.00 0.00 0.00 31 977.0
20260508131346 57 65 5.0 15.0 0.00 0.00 0.00 28 977.0
20260508130846 58 120 3.0 9.0 0.00 0.00 0.00 28 977.0
20260508130346 58 229 3.0 13.0 0.00 0.00 0.00 30 977.0
20260508125846 58 131 4.0 13.0 0.00 0.00 0.00 30 977.0
20260508125316 57 275 5.0 13.0 0.00 0.00 0.00 29 977.0
20260508124816 58 143 5.0 11.0 0.00 0.00 0.00 30 977.0
20260508124316 58 154 6.0 19.0 0.00 0.00 0.00 30 977.0
20260508123816 57 206 7.0 19.0 0.00 0.00 0.00 27 977.0
20260508123316 58 66 5.0 20.0 0.00 0.00 0.00 26 977.0
20260508122816 58 281 5.0 20.0 0.00 0.00 0.00 26 977.0
20260508122316 59 237 4.0 12.0 0.00 0.00 0.00 28 977.0
20260508121816 58 96 5.0 15.0 0.00 0.00 0.00 29 977.0
20260508121316 58 183 6.0 17.0 0.00 0.00 0.00 29 977.0
20260508120816 57 246 8.0 21.0 0.00 0.00 0.00 29 977.0
20260508120246 56 117 9.0 21.0 0.00 0.00 0.00 33 977.0
20260508115746 57 62 8.0 20.0 0.00 0.00 0.00 32 977.0
20260508115246 56 29 8.0 19.0 0.00 0.00 0.00 32 977.0
20260508114746 55 42 8.0 19.0 0.00 0.00 0.00 32 977.0
20260508114216 56 57 5.0 18.0 0.00 0.00 0.00 31 977.0
20260508113716 58 72 6.0 17.0 0.00 0.00 0.00 32 977.0
20260508113216 57 185 6.0 17.0 0.00 0.00 0.00 33 977.0
20260508112716 57 25 6.0 17.0 0.00 0.00 0.00 30 977.0
20260508112216 58 56 6.0 18.0 0.00 0.00 0.00 30 977.0
20260508111716 58 9 6.0 18.0 0.00 0.00 0.00 30 977.0
20260508111146 57 60 6.0 18.0 0.00 0.00 0.00 30 977.0
20260508110646 58 122 5.0 14.0 0.00 0.00 0.00 30 977.0
20260508110146 57 35 6.0 18.0 0.00 0.00 0.00 28 977.1
20260508105646 57 215 7.0 18.0 0.00 0.00 0.00 33 977.0
20260508105146 57 61 7.0 21.0 0.00 0.00 0.00 29 977.0
20260508104646 58 86 8.0 21.0 0.00 0.00 0.00 31 977.0
20260508104146 56 108 9.0 21.0 0.00 0.00 0.00 31 977.1
20260508103646 56 74 8.0 18.0 0.00 0.00 0.00 31 977.0
20260508103116 56 49 6.0 18.0 0.00 0.00 0.00 33 977.1
20260508102616 57 66 5.0 17.0 0.00 0.00 0.00 27 977.0
20260508102116 58 275 5.0 15.0 0.00 0.00 0.00 29 977.0
20260508101546 57 73 4.0 15.0 0.00 0.00 0.00 28 977.1
20260508101016 58 194 4.0 12.0 0.00 0.00 0.00 31 977.0
20260508100516 56 48 6.0 15.0 0.00 0.00 0.00 32 977.1
20260508100016 56 216 8.0 16.0 0.00 0.00 0.00 33 977.1
20260508095446 55 59 9.0 17.0 0.00 0.00 0.00 31 977.1